Location: Pitton
(51.0667°N, 1.7000°W)
Time: 11:13:24
(UTC+00:00)

SL-8 Rocket - Pass Details

Date: 17 September 2019
Orbit: 956 x 991 km, 82.9° (Epoch: 23 October)

Event Time Altitude Azimuth Distance (km) Brightness Sun altitude
Rises 20:16:23 0° 349° (N) 3,679 7.6 -18.7°
Reaches altitude 10° 20:18:54 10° 349° (N) 2,723 6.9 -19.0°
Maximum altitude 20:25:09 84° 262° (W) 975 4.0 -19.9°
Enters shadow 20:29:56 18° 176° (S) 2,182 5.5 -20.5°
